Bennett, CO

3:38 AM MDT on September 30, 2016 (GMT -0600)
Front Range

Weather History for KFTG - August, 2013

Change the Weather History Date:

Wednesday, August 28, 2013

  Actual Average (KDEN) Record (KDEN)
Temperature  
Mean Temperature 80 °F 70 °F  
Max Temperature 95 °F 85 °F 96 °F (2011)
Min Temperature 64 °F 55 °F 42 °F (2004)
Degree Days  
Heating Degree Days 0 1  
Month to date heating degree days 2  
Since 1 June heating degree days 70  
Since 1 July heating degree days 8  
Cooling Degree Days 14 6  
Month to date cooling degree days 228  
Year to date cooling degree days 672  
Since 1 June cooling degree days 650  
Growing Degree Days 30 (Base 50)    
Moisture  
Dew Point 49 °F    
Average Humidity 47    
Maximum Humidity 68    
Minimum Humidity 12    
Precipitation  
Precipitation 0.00 in 0.03 in 0.68 in (1882)
Month to date precipitation 1.57  
Year to date precipitation 11.24  
Snow  
Snow 0.00 in - - ()
Month to date snowfall  
Since 1 June snowfall  
Since 1 July snowfall  
Snow Depth -    
Sea Level Pressure  
Sea Level Pressure 30.16 in    
Wind  
Wind Speed 7 mph (WSW)    
Max Wind Speed 12 mph    
Max Gust Speed -    
Visibility 11 miles    
Events      
T = Trace of Precipitation, MM = Missing Value Source: NWS Daily Summary

Daily Weather History Graph

Daily Weather History Graph

Search for Another Location

Airport or City:

Trip Planner

Search our weather history database for the weather conditions in past years. The results will help you decide how hot, cold, wet, or windy it might be!

Date:

Astronomy

Aug. 28, 2013 Rise Set
Actual Time 6:22 AM MDT 7:35 PM MDT
Civil Twilight 5:54 AM MDT 8:02 PM MDT
Nautical Twilight 5:21 AM MDT 8:36 PM MDT
Astronomical Twilight 4:46 AM MDT 9:11 PM MDT
Moon No Moon Rise 2:14 PM MDT (8/28)
Length of Visible Light 14h 08m
Length of Day
13h 12m
Waning Gibbous, 47% of the Moon is Illuminated
Aug 28
Waning Gibbous
Sep 5
New
Sep 12
First Quarter
Sep 19
Full
Sep 26
Last Quarter

Hourly Weather History & Observations

Time (MDT) Temp. Dew Point Humidity Pressure Visibility Wind Dir Wind Speed Gust Speed Precip Events Conditions
12:17 AM 69.8 °F 51.8 °F 53% 30.15 in 10.0 mi South 6.9 mph - N/A   Clear
12:37 AM 68.0 °F 51.8 °F 56% 30.15 in 10.0 mi SSE 9.2 mph - N/A   Clear
12:57 AM 68.0 °F 51.8 °F 56% 30.15 in 10.0 mi South 5.8 mph - N/A   Clear
1:17 AM 69.8 °F 51.8 °F 53% 30.15 in 10.0 mi SSW 5.8 mph - N/A   Clear
1:37 AM 68.0 °F 53.6 °F 60% 30.15 in 10.0 mi West 11.5 mph - N/A   Clear
1:57 AM 68.0 °F 51.8 °F 56% 30.15 in 10.0 mi WSW 6.9 mph - N/A   Clear
2:16 AM 66.2 °F 53.6 °F 64% 30.15 in 10.0 mi WSW 9.2 mph - N/A   Clear
2:36 AM 68.0 °F 53.6 °F 60% 30.15 in 10.0 mi WSW 8.1 mph - N/A   Clear
2:57 AM 66.2 °F 53.6 °F 64% 30.15 in 10.0 mi WSW 8.1 mph - N/A   Clear
3:17 AM 68.0 °F 53.6 °F 60% 30.15 in 10.0 mi WSW 8.1 mph - N/A   Clear
3:37 AM 68.0 °F 53.6 °F 60% 30.15 in 10.0 mi WSW 9.2 mph - N/A   Clear
3:57 AM 66.2 °F 53.6 °F 64% 30.15 in 10.0 mi WSW 9.2 mph - N/A   Clear
4:17 AM 66.2 °F 53.6 °F 64% 30.16 in 10.0 mi WSW 10.4 mph - N/A   Clear
4:37 AM 64.4 °F 53.6 °F 68% 30.16 in 10.0 mi WSW 10.4 mph - N/A   Clear
4:57 AM 64.4 °F 53.6 °F 68% 30.16 in 10.0 mi WSW 9.2 mph - N/A   Clear
5:17 AM 64.4 °F 53.6 °F 68% 30.16 in 10.0 mi WSW 9.2 mph - N/A   Clear
5:37 AM 64.4 °F 53.6 °F 68% 30.16 in 10.0 mi WSW 9.2 mph - N/A   Clear
5:57 AM 66.2 °F 53.6 °F 64% 30.16 in 10.0 mi WSW 6.9 mph - N/A   Clear
6:17 AM 66.2 °F 53.6 °F 64% 30.16 in 10.0 mi SW 5.8 mph - N/A   Clear
6:37 AM 64.4 °F 53.6 °F 68% 30.17 in 10.0 mi WSW 5.8 mph - N/A   Clear
6:56 AM 68.0 °F 53.6 °F 60% 30.17 in 10.0 mi WSW 8.1 mph - N/A   Clear
7:47 AM 71.6 °F 55.4 °F 57% 30.18 in 40.0 mi SW 9.2 mph - N/A   Partly Cloudy
8:50 AM 77.0 °F 55.4 °F 47% 30.19 in 40.0 mi WSW 10.4 mph - N/A   Partly Cloudy
9:50 AM 82.4 °F 51.8 °F 35% 30.20 in 40.0 mi West 9.2 mph - N/A   Partly Cloudy
10:50 AM 84.2 °F 51.8 °F 33% 30.20 in 40.0 mi NW 5.8 mph - N/A   Partly Cloudy
11:55 AM 86.0 °F 50.0 °F 29% 30.19 in 40.0 mi Calm Calm - N/A   Partly Cloudy
12:58 PM 91.4 °F 48.2 °F 23% 30.17 in 40.0 mi Calm Calm - N/A   Partly Cloudy
1:55 PM 91.4 °F 44.6 °F 20% 30.16 in 40.0 mi Calm Calm - N/A   Scattered Clouds
3:48 PM 93.2 °F 41.0 °F 16% 30.13 in 20.0 mi Calm Calm - N/A   Scattered Clouds
4:50 PM 95.0 °F 35.6 °F 12% 30.12 in 20.0 mi North 4.6 mph - N/A   Mostly Cloudy
5:50 PM 93.2 °F 37.4 °F 14% 30.13 in 20.0 mi NNE 8.1 mph - N/A   Mostly Cloudy
6:55 PM 89.6 °F 37.4 °F 16% 30.14 in 20.0 mi Calm Calm - N/A   Mostly Cloudy
7:50 PM 84.2 °F 39.2 °F 20% 30.15 in 10.0 mi Calm Calm - N/A   Mostly Cloudy
9:17 PM 75.2 °F 41.0 °F 29% 30.18 in 10.0 mi South 3.5 mph - N/A   Clear
9:37 PM 78.8 °F 39.2 °F 24% 30.18 in 10.0 mi South 6.9 mph - N/A   Clear
9:57 PM 73.4 °F 41.0 °F 31% 30.18 in 10.0 mi SW 8.1 mph - N/A   Clear
10:17 PM 75.2 °F 42.8 °F 31% 30.18 in 10.0 mi SW 8.1 mph - N/A   Clear
10:37 PM 73.4 °F 42.8 °F 33% 30.19 in 10.0 mi SW 9.2 mph - N/A   Clear
10:57 PM 73.4 °F 46.4 °F 38% 30.19 in 10.0 mi WSW 11.5 mph - N/A   Clear
11:17 PM 71.6 °F 50.0 °F 46% 30.19 in 10.0 mi WSW 10.4 mph - N/A   Clear
11:36 PM 69.8 °F 51.8 °F 53% 30.18 in 10.0 mi WSW 10.4 mph - N/A   Clear
11:57 PM 69.8 °F 50.0 °F 49% 30.19 in 10.0 mi WSW 6.9 mph - N/A   Clear